Weather History for Spirit of St Louis, MO

Change the Weather History Date:

Friday, November 2, 2012

  Actual Average Record
Temperature  
Mean Temperature 46 °F -  
Max Temperature 55 °F 59 °F 78 °F (2003)
Min Temperature 36 °F 38 °F 23 °F (2006)
Degree Days  
Heating Degree Days 20    
Moisture  
Dew Point 33 °F    
Average Humidity 63    
Maximum Humidity 86    
Minimum Humidity 40    
Precipitation  
Precipitation 0.00 in - - ()
Sea Level Pressure  
Sea Level Pressure 30.03 in    
Wind  
Wind Speed 3 mph (ENE)    
Max Wind Speed 9 mph    
Max Gust Speed -    
Visibility 10 miles    
Events      
Averages and records for this station are not official NWS values.
T = Trace of Precipitation, MM = Missing Value Source: NWS Daily Summary

Daily Weather History Graph

Daily Weather History Graph

Search for Another Location

Airport:

Trip Planner

Search our weather history database for the weather conditions in past years. The results will help you decide how hot, cold, wet, or windy it might be!

Date:

Astronomy

Nov. 02, 2012 Rise Set
Actual Time 7:31 AM CDT 6:00 PM CDT
Civil Twilight 7:03 AM CDT 6:28 PM CDT
Nautical Twilight 6:31 AM CDT 6:59 PM CDT
Astronomical Twilight 6:00 AM CDT 7:30 PM CDT
Moon 8:49 PM CDT (11/2) 10:50 AM CDT (11/2)
Length of Visible Light 11h 25m
Length of Day
10h 29m
Waning Gibbous, 87% of the Moon is Illuminated
Nov 2
Waning Gibbous
Nov 6
Last Quarter
Nov 13
New
Nov 20
First Quarter
Nov 28
Full

Hourly Weather History & Observations

Time (CDT) Temp. Windchill Dew Point Humidity Pressure Visibility Wind Dir Wind Speed Gust Speed Precip Events Conditions
12:54 AM 43.0 °F - 37.0 °F 80% 29.93 in 10.0 mi Calm Calm - N/A   Clear
1:54 AM 46.0 °F 43.9 °F 37.0 °F 71% 29.94 in 10.0 mi North 4.6 mph - N/A   Clear
2:54 AM 45.0 °F - 36.0 °F 71% 29.96 in 10.0 mi Calm Calm - N/A   Clear
3:54 AM 39.9 °F - 35.1 °F 83% 29.97 in 10.0 mi Calm Calm - N/A   Clear
4:54 AM 39.9 °F 37.8 °F 34.0 °F 79% 29.99 in 10.0 mi North 3.5 mph - N/A   Clear
5:54 AM 41.0 °F 39.0 °F 33.1 °F 73% 30.02 in 10.0 mi North 3.5 mph - N/A   Clear
6:54 AM 36.0 °F - 30.9 °F 82% 30.05 in 10.0 mi Calm Calm - N/A   Scattered Clouds
7:54 AM 36.0 °F - 32.0 °F 86% 30.06 in 10.0 mi Calm Calm - N/A   Mostly Cloudy
8:54 AM 39.9 °F - 36.0 °F 86% 30.07 in 10.0 mi Calm Calm - N/A   Mostly Cloudy
9:54 AM 45.0 °F 40.1 °F 33.1 °F 63% 30.09 in 10.0 mi ENE 9.2 mph - N/A   Mostly Cloudy
10:54 AM 46.9 °F - 33.1 °F 59% 30.10 in 10.0 mi Calm Calm - N/A   Overcast
11:54 AM 50.0 °F - 32.0 °F 50% 30.10 in 10.0 mi NE 5.8 mph - N/A   Mostly Cloudy
12:54 PM 54.0 °F - 33.1 °F 45% 30.07 in 10.0 mi East 4.6 mph - N/A   Mostly Cloudy
1:54 PM 55.0 °F - 33.1 °F 43% 30.04 in 10.0 mi NE 8.1 mph - N/A   Clear
2:54 PM 55.0 °F - 33.1 °F 43% 30.03 in 10.0 mi ENE 9.2 mph - N/A   Scattered Clouds
3:54 PM 55.9 °F - 32.0 °F 40% 30.04 in 10.0 mi East 5.8 mph - N/A   Scattered Clouds
4:54 PM 55.0 °F - 33.1 °F 43% 30.03 in 10.0 mi East 9.2 mph - N/A   Scattered Clouds
5:54 PM 51.1 °F - 32.0 °F 48% 30.02 in 10.0 mi East 4.6 mph - N/A   Clear
6:54 PM 46.0 °F - 34.0 °F 63% 30.04 in 10.0 mi Calm Calm - N/A   Clear
7:54 PM 45.0 °F 41.2 °F 33.1 °F 63% 30.04 in 10.0 mi East 6.9 mph - N/A   Clear
8:54 PM 48.9 °F - 32.0 °F 52% 30.04 in 10.0 mi East 6.9 mph - N/A   Clear
9:54 PM 45.0 °F 41.8 °F 32.0 °F 60% 30.04 in 10.0 mi East 5.8 mph - N/A   Clear
10:54 PM 44.1 °F 42.5 °F 32.0 °F 63% 30.05 in 10.0 mi East 3.5 mph - N/A   Clear
11:54 PM 43.0 °F 39.5 °F 33.1 °F 68% 30.04 in 10.0 mi East 5.8 mph - N/A   Clear